Location: ?????????
(38.0736°N, 23.2119°E)
Time: 05:49:50
(UTC+00:00)

Cosmos 1354 Rocket - Visible Passes

Search period start: 16 July 2024 00:00
Search period end: 26 July 2024 00:00
Orbit: 763 x 780 km, 74.0° (Epoch: 15 July)

Date Brightness Start Highest point End Pass type
(mag) Time Alt. Az. Time Alt. Az. Time Alt. Az.
16 Jul 6.9 01:24:08 10° NNE 01:27:40 18° ENE 01:31:12 10° ESE visible
17 Jul 7.2 00:49:57 10° NE 00:51:18 11° NE 00:52:39 10° ENE visible
17 Jul 4.0 02:28:57 10° NNW 02:34:12 89° ENE 02:39:25 10° SSE visible
18 Jul 4.9 01:53:03 10° N 01:58:10 52° ENE 02:03:15 10° SE visible
19 Jul 5.9 01:17:25 10° N 01:22:02 31° ENE 01:26:38 10° SE visible
20 Jul 6.6 00:42:05 10° NNE 00:45:47 19° ENE 00:49:29 10° ESE visible
20 Jul 4.2 02:23:10 10° NNW 02:28:12 50° WSW 02:33:13 10° S visible
21 Jul 6.9 00:07:39 10° NE 00:09:26 12° NE 00:11:13 10° ENE visible
21 Jul 3.9 01:47:02 10° NNW 01:52:17 86° WSW 01:57:30 10° SSE visible
22 Jul 4.6 01:11:07 10° N 01:16:16 55° ENE 01:21:22 10° SSE visible
23 Jul 5.6 00:35:26 10° N 00:40:08 33° ENE 00:44:49 10° SE visible
23 Jul 4.9 02:17:45 10° NW 02:22:06 27° W 02:26:25 10° SSW visible
24 Jul 6.3 00:00:04 10° NNE 00:03:54 20° ENE 00:07:43 10° ESE visible
24 Jul 4.2 01:41:17 10° NNW 01:46:16 46° WSW 01:49:36 20° SSW visible
24 Jul 6.7 23:25:25 10° NNE 23:27:33 12° NE 23:29:41 10° E visible
25 Jul 3.9 01:05:06 10° NNW 01:10:21 81° WSW 01:12:45 33° S visible
